EN

Hourly Weather Almoloya

Today, 20 January, Wednesday

Time Temperature Precipitation Wind Pressure Humidity
00:00 +9°C° 0 mm 2 mps 562 mmHg 81%
01:00 +9°C° 0 mm 2 mps 561 mmHg 85%
02:00 +8°C° 0 mm 2 mps 561 mmHg 89%
03:00 +8°C° 0 mm 2 mps 561 mmHg 90%
04:00 +8°C° 0 mm 2 mps 561 mmHg 91%
05:00 +9°C° 0 mm 1 mps 561 mmHg 93%
06:00 +9°C° 0 mm 2 mps 562 mmHg 89%
07:00 +9°C° 0 mm 2 mps 563 mmHg 86%
08:00 +10°C° 0 mm 2 mps 563 mmHg 82%
09:00 +12°C° 0 mm 3 mps 564 mmHg 74%
10:00 +14°C° 0 mm 3 mps 565 mmHg 66%
11:00 +17°C° 0 mm 4 mps 566 mmHg 58%
12:00 +17°C° 0 mm 4 mps 565 mmHg 59%
13:00 +17°C° 0 mm 4 mps 564 mmHg 59%
14:00 +17°C° 0 mm 4 mps 564 mmHg 60%
15:00 +15°C° 0 mm 4 mps 563 mmHg 63%
16:00 +14°C° 0 mm 3 mps 563 mmHg 67%
17:00 +15°C° 0 mm 2 mps 563 mmHg 71%
18:00 +14°C° 0 mm 2 mps 563 mmHg 77%
19:00 +13°C° 0 mm 2 mps 563 mmHg 82%
20:00 +12°C° 0 mm 2 mps 563 mmHg 88%
21:00 +10°C° 0 mm 2 mps 563 mmHg 90%
22:00 +11°C° 0 mm 1 mps 562 mmHg 91%
23:00 +10°C° 0 mm 1 mps 562 mmHg 93%

Tomorrow, 21 January, Thursday

Time Temperature Precipitation Wind Pressure Humidity
00:00 +10°C° 0 mm 1 mps 562 mmHg 93%
01:00 +10°C° 0 mm 1 mps 562 mmHg 93%
02:00 +9°C° 0 mm 1 mps 561 mmHg 93%
03:00 +9°C° 0 mm 1 mps 561 mmHg 94%
04:00 +8°C° 0 mm 0 mps 561 mmHg 94%
05:00 +8°C° 0 mm 0 mps 561 mmHg 94%
06:00 +9°C° 0 mm 0 mps 562 mmHg 87%
07:00 +10°C° 0 mm 0 mps 563 mmHg 80%
08:00 +12°C° 0 mm 0 mps 563 mmHg 74%
09:00 +15°C° 0 mm 1 mps 564 mmHg 63%
10:00 +18°C° 0 mm 1 mps 565 mmHg 52%
11:00 +20°C° 0 mm 1 mps 566 mmHg 40%
12:00 +21°C° 0 mm 1 mps 565 mmHg 37%
13:00 +20°C° 0 mm 2 mps 565 mmHg 33%
14:00 +21°C° 0 mm 2 mps 564 mmHg 29%
15:00 +20°C° 0 mm 2 mps 564 mmHg 36%
16:00 +19°C° 0 mm 2 mps 563 mmHg 42%
17:00 +17°C° 0 mm 3 mps 562 mmHg 48%
18:00 +16°C° 0 mm 2 mps 562 mmHg 55%
19:00 +15°C° 0 mm 2 mps 561 mmHg 62%
20:00 +13°C° 0 mm 1 mps 561 mmHg 68%
21:00 +13°C° 0 mm 1 mps 561 mmHg 69%
22:00 +12°C° 0 mm 1 mps 561 mmHg 69%
23:00 +12°C° 0 mm 1 mps 560 mmHg 70%

Day after tomorrow, 22 January, Friday

Time Temperature Precipitation Wind Pressure Humidity
00:00 +12°C° 0 mm 1 mps 560 mmHg 70%
01:00 +10°C° 0 mm 0 mps 560 mmHg 69%
02:00 +10°C° 0 mm 0 mps 559 mmHg 69%
03:00 +10°C° 0 mm 0 mps 559 mmHg 70%
04:00 +11°C° 0 mm 1 mps 559 mmHg 70%
05:00 +10°C° 0 mm 1 mps 559 mmHg 71%
06:00 +12°C° 0 mm 1 mps 560 mmHg 65%
07:00 +13°C° 0 mm 1 mps 561 mmHg 60%
08:00 +15°C° 0 mm 1 mps 562 mmHg 55%
09:00 +16°C° 0 mm 1 mps 563 mmHg 49%
10:00 +19°C° 0 mm 1 mps 564 mmHg 44%
11:00 +20°C° 0 mm 1 mps 564 mmHg 38%
12:00 +21°C° 0 mm 1 mps 564 mmHg 36%
13:00 +21°C° 0 mm 2 mps 563 mmHg 33%
14:00 +21°C° 0 mm 2 mps 563 mmHg 30%
15:00 +20°C° 0 mm 2 mps 562 mmHg 38%
16:00 +19°C° 0 mm 2 mps 562 mmHg 45%
17:00 +17°C° 0 mm 2 mps 561 mmHg 52%
18:00 +16°C° 0 mm 2 mps 561 mmHg 58%
19:00 +14°C° 0 mm 2 mps 561 mmHg 64%
20:00 +13°C° 0 mm 2 mps 561 mmHg 70%
21:00 +13°C° 0 mm 1 mps 560 mmHg 71%
22:00 +12°C° 0 mm 1 mps 560 mmHg 71%
23:00 +12°C° 0 mm 1 mps 560 mmHg 72%

23 January, Saturday

Time Temperature Precipitation Wind Pressure Humidity
00:00 +12°C° 0 mm 1 mps 560 mmHg 72%
01:00 +11°C° 0 mm 1 mps 560 mmHg 73%
02:00 +11°C° 0 mm 1 mps 559 mmHg 73%
03:00 +11°C° 0 mm 1 mps 559 mmHg 74%
04:00 +11°C° 0 mm 1 mps 559 mmHg 74%
05:00 +10°C° 0 mm 1 mps 559 mmHg 74%
06:00 +12°C° 0 mm 1 mps 560 mmHg 69%
07:00 +13°C° 0 mm 1 mps 561 mmHg 64%
08:00 +14°C° 0 mm 1 mps 562 mmHg 59%
09:00 +16°C° 0 mm 1 mps 563 mmHg 52%
10:00 +19°C° 0 mm 1 mps 563 mmHg 45%
11:00 +20°C° 0 mm 1 mps 564 mmHg 38%
12:00 +21°C° 0 mm 1 mps 564 mmHg 35%
13:00 +20°C° 0 mm 2 mps 563 mmHg 32%
14:00 +21°C° 0 mm 2 mps 563 mmHg 28%
15:00 +20°C° 0 mm 2 mps 562 mmHg 34%
16:00 +19°C° 0 mm 2 mps 562 mmHg 39%
17:00 +17°C° 0 mm 2 mps 561 mmHg 44%
18:00 +16°C° 0 mm 1 mps 561 mmHg 49%
19:00 +15°C° 0 mm 1 mps 561 mmHg 54%
20:00 +14°C° 0 mm 1 mps 561 mmHg 59%
21:00 +13°C° 0 mm 1 mps 560 mmHg 60%
22:00 +13°C° 0 mm 1 mps 560 mmHg 60%
23:00 +13°C° 0 mm 1 mps 560 mmHg 60%

24 January, Sunday

Time Temperature Precipitation Wind Pressure Humidity
00:00 +12°C° 0 mm 1 mps 560 mmHg 61%
01:00 +12°C° 0 mm 1 mps 559 mmHg 61%
02:00 +11°C° 0 mm 1 mps 559 mmHg 61%
03:00 +11°C° 0 mm 1 mps 559 mmHg 60%
04:00 +11°C° 0 mm 1 mps 558 mmHg 59%
05:00 +11°C° 0 mm 1 mps 558 mmHg 58%
06:00 +12°C° 0 mm 1 mps 559 mmHg 54%
07:00 +13°C° 0 mm 1 mps 561 mmHg 50%
08:00 +15°C° 0 mm 1 mps 562 mmHg 45%
09:00 +18°C° 0 mm 1 mps 562 mmHg 40%
10:00 +19°C° 0 mm 1 mps 563 mmHg 34%
11:00 +21°C° 0 mm 1 mps 564 mmHg 28%
12:00 +21°C° 0 mm 2 mps 563 mmHg 26%
13:00 +21°C° 0 mm 2 mps 563 mmHg 24%
14:00 +22°C° 0 mm 3 mps 562 mmHg 22%
15:00 +20°C° 0 mm 3 mps 562 mmHg 28%
16:00 +19°C° 0 mm 3 mps 561 mmHg 34%
17:00 +17°C° 0 mm 3 mps 560 mmHg 41%
18:00 +16°C° 0 mm 2 mps 560 mmHg 46%
19:00 +15°C° 0 mm 2 mps 560 mmHg 52%
20:00 +14°C° 0 mm 2 mps 560 mmHg 57%
21:00 +13°C° 0 mm 1 mps 559 mmHg 58%
22:00 +13°C° 0 mm 1 mps 559 mmHg 58%
23:00 +13°C° 0 mm 1 mps 559 mmHg 59%

25 January, Monday

Time Temperature Precipitation Wind Pressure Humidity
00:00 +12°C° 0 mm 1 mps 559 mmHg 61%
01:00 +12°C° 0 mm 1 mps 558 mmHg 62%
02:00 +11°C° 0 mm 1 mps 558 mmHg 64%
03:00 +11°C° 0 mm 1 mps 558 mmHg 67%
04:00 +10°C° 0 mm 1 mps 558 mmHg 69%
05:00 +10°C° 0 mm 1 mps 557 mmHg 72%
06:00 +11°C° 0 mm 1 mps 558 mmHg 66%
07:00 +13°C° 0 mm 1 mps 559 mmHg 61%
08:00 +14°C° 0 mm 1 mps 561 mmHg 55%
09:00 +16°C° 0 mm 1 mps 561 mmHg 48%
10:00 +19°C° 0 mm 1 mps 562 mmHg 42%
11:00 +21°C° 0 mm 1 mps 563 mmHg 35%
12:00 +21°C° 0 mm 1 mps 562 mmHg 32%
13:00 +21°C° 0 mm 2 mps 562 mmHg 29%
14:00 +21°C° 0 mm 2 mps 561 mmHg 27%
15:00 +20°C° 0 mm 3 mps 561 mmHg 33%
16:00 +19°C° 0 mm 3 mps 560 mmHg 38%
17:00 +17°C° 0 mm 4 mps 559 mmHg 44%
18:00 +16°C° 0 mm 3 mps 559 mmHg 48%
19:00 +15°C° 0 mm 2 mps 559 mmHg 52%
20:00 +13°C° 0 mm 1 mps 559 mmHg 56%
21:00 +13°C° 0 mm 1 mps 559 mmHg 56%
22:00 +12°C° 0 mm 1 mps 559 mmHg 57%
23:00 +12°C° 0 mm 1 mps 559 mmHg 58%
Show more